| time (UTC) | temp F | wind direction | speed knots | gust knots | rain 1hr in | rain 24hr in | rain mn in | humidity % | barometer mb |
| 20260503231914 | 61 | 252 | 13.9 | 15.6 | 0.00 | 0.00 | 0.00 | 76 | 1011.3 |
| 20260503231412 | 61 | 248 | 12.2 | 19.1 | 0.00 | 0.00 | 0.00 | 76 | 1011.3 |
| 20260503230908 | 62 | 256 | 14.8 | 18.2 | 0.00 | 0.00 | 0.00 | 76 | 1011.1 |
| 20260503230404 | 61 | 248 | 14.8 | 19.1 | 0.00 | 0.00 | 0.00 | 76 | 1011.0 |
| 20260503225902 | 61 | 247 | 15.6 | 19.1 | 0.00 | 0.00 | 0.00 | 76 | 1010.8 |
| 20260503225358 | 61 | 266 | 10.4 | 15.6 | 0.00 | 0.00 | 0.00 | 77 | 1010.7 |
| 20260503224854 | 61 | 260 | 13.9 | 19.1 | 0.00 | 0.00 | 0.00 | 76 | 1010.8 |
| 20260503224351 | 61 | 243 | 10.4 | 19.1 | 0.00 | 0.00 | 0.00 | 77 | 1010.8 |
| 20260503223849 | 61 | 270 | 13.0 | 18.2 | 0.00 | 0.00 | 0.00 | 79 | 1010.4 |
| 20260503223347 | 61 | 253 | 12.2 | 14.8 | 0.00 | 0.00 | 0.00 | 81 | 1010.4 |
| 20260503222842 | 60 | 258 | 9.6 | 15.6 | 0.00 | 0.00 | 0.00 | 82 | 1010.3 |
| 20260503222341 | 61 | 244 | 7.8 | 17.4 | 0.00 | 0.00 | 0.00 | 83 | 1010.2 |
| 20260503221839 | 61 | 269 | 13.9 | 19.1 | 0.00 | 0.00 | 0.00 | 82 | 1010.0 |
| 20260503221337 | 61 | 263 | 11.3 | 19.1 | 0.00 | 0.00 | 0.00 | 80 | 1010.1 |
| 20260503220832 | 61 | 242 | 13.0 | 17.4 | 0.00 | 0.00 | 0.00 | 80 | 1010.0 |
| 20260503220330 | 60 | 271 | 13.0 | 15.6 | 0.00 | 0.00 | 0.00 | 82 | 1010.0 |
| 20260503215827 | 60 | 249 | 8.7 | 13.0 | 0.00 | 0.00 | 0.00 | 85 | 1009.8 |
| 20260503215324 | 60 | 292 | 9.6 | 17.4 | 0.00 | 0.00 | 0.00 | 86 | 1009.8 |
| 20260503214821 | 59 | 263 | 13.0 | 20.9 | 0.00 | 0.00 | 0.00 | 87 | 1009.8 |
| 20260503214318 | 60 | 291 | 10.4 | 20.0 | 0.00 | 0.00 | 0.00 | 87 | 1009.8 |
| 20260503213810 | 59 | 292 | 7.8 | 13.0 | 0.00 | 0.00 | 0.00 | 87 | 1009.6 |
| 20260503213307 | 60 | 313 | 10.4 | 18.2 | 0.00 | 0.00 | 0.00 | 87 | 1009.4 |
| 20260503212804 | 60 | 315 | 10.4 | 20.9 | 0.00 | 0.00 | 0.00 | 87 | 1009.4 |
| 20260503212302 | 60 | 268 | 13.0 | 18.2 | 0.00 | 0.00 | 0.00 | 86 | 1009.5 |
| 20260503211759 | 60 | 285 | 8.7 | 18.2 | 0.00 | 0.00 | 0.00 | 85 | 1009.5 |
| 20260503211255 | 60 | 280 | 17.4 | 20.0 | 0.00 | 0.00 | 0.00 | 85 | 1009.6 |
| 20260503210755 | 60 | 321 | 11.3 | 15.6 | 0.00 | 0.00 | 0.00 | 84 | 1009.3 |
| 20260503210253 | 60 | 273 | 14.8 | 20.0 | 0.00 | 0.00 | 0.00 | 83 | 1009.4 |
| 20260503205748 | 60 | 257 | 13.0 | 19.1 | 0.00 | 0.00 | 0.00 | 83 | 1009.3 |
| 20260503205245 | 59 | 279 | 12.2 | 21.7 | 0.00 | 0.00 | 0.00 | 84 | 1009.2 |
| 20260503204741 | 59 | 274 | 15.6 | 20.9 | 0.00 | 0.00 | 0.00 | 85 | 1009.3 |
| 20260503204239 | 59 | 263 | 12.2 | 18.2 | 0.00 | 0.00 | 0.00 | 85 | 1009.0 |
| 20260503203736 | 60 | 253 | 19.1 | 23.5 | 0.00 | 0.00 | 0.00 | 84 | 1009.0 |
| 20260503203234 | 60 | 273 | 13.0 | 20.0 | 0.00 | 0.00 | 0.00 | 83 | 1008.8 |
| 20260503202731 | 60 | 297 | 13.0 | 20.0 | 0.00 | 0.00 | 0.00 | 83 | 1009.0 |
| 20260503202229 | 60 | 276 | 13.9 | 19.1 | 0.00 | 0.00 | 0.00 | 83 | 1008.9 |
| 20260503201726 | 60 | 278 | 13.9 | 18.2 | 0.00 | 0.00 | 0.00 | 83 | 1008.8 |
| 20260503201224 | 60 | 259 | 8.7 | 18.2 | 0.00 | 0.00 | 0.00 | 82 | 1008.7 |
| 20260503200720 | 60 | 299 | 9.6 | 20.0 | 0.00 | 0.00 | 0.00 | 82 | 1008.7 |
| 20260503200216 | 60 | 272 | 13.9 | 20.9 | 0.00 | 0.00 | 0.00 | 82 | 1008.8 |
| 20260503195713 | 60 | 281 | 11.3 | 18.2 | 0.00 | 0.00 | 0.00 | 83 | 1008.5 |
| 20260503195210 | 60 | 296 | 9.6 | 19.1 | 0.00 | 0.00 | 0.00 | 83 | 1008.5 |
| 20260503194707 | 60 | 271 | 13.0 | 14.8 | 0.00 | 0.00 | 0.00 | 82 | 1008.5 |
| 20260503194203 | 60 | 300 | 13.0 | 18.2 | 0.00 | 0.00 | 0.00 | 82 | 1008.6 |
| 20260503193700 | 60 | 321 | 12.2 | 19.1 | 0.00 | 0.00 | 0.00 | 82 | 1008.6 |
| 20260503193155 | 60 | 343 | 12.2 | 17.4 | 0.00 | 0.00 | 0.00 | 83 | 1008.5 |
| 20260503192651 | 60 | 274 | 19.1 | 23.5 | 0.00 | 0.00 | 0.00 | 83 | 1008.5 |
| 20260503192147 | 60 | 258 | 17.4 | 19.1 | 0.00 | 0.00 | 0.00 | 84 | 1008.5 |
| 20260503191644 | 60 | 285 | 14.8 | 21.7 | 0.00 | 0.00 | 0.00 | 83 | 1008.6 |
| 20260503191141 | 60 | 286 | 13.0 | 19.1 | 0.00 | 0.00 | 0.00 | 83 | 1008.4 |
| 20260503190638 | 60 | 298 | 15.6 | 20.0 | 0.00 | 0.00 | 0.00 | 83 | 1008.4 |
| 20260503190135 | 60 | 279 | 9.6 | 20.0 | 0.00 | 0.00 | 0.00 | 83 | 1008.7 |
| 20260503185631 | 60 | 311 | 12.2 | 20.0 | 0.00 | 0.00 | 0.00 | 84 | 1008.5 |
| 20260503185126 | 60 | 318 | 16.5 | 21.7 | 0.00 | 0.00 | 0.00 | 83 | 1008.5 |
| 20260503184622 | 60 | 281 | 12.2 | 18.2 | 0.00 | 0.00 | 0.00 | 83 | 1008.4 |
| 20260503184118 | 60 | 275 | 11.3 | 17.4 | 0.00 | 0.00 | 0.00 | 83 | 1008.5 |
| 20260503183615 | 60 | 314 | 13.0 | 17.4 | 0.00 | 0.00 | 0.00 | 83 | 1008.4 |
| 20260503183112 | 60 | 284 | 15.6 | 23.5 | 0.00 | 0.00 | 0.00 | 83 | 1008.5 |
| 20260503182611 | 60 | 303 | 16.5 | 25.2 | 0.00 | 0.00 | 0.00 | 82 | 1008.5 |
| 20260503182109 | 60 | 298 | 17.4 | 20.9 | 0.00 | 0.00 | 0.00 | 83 | 1008.6 |
| 20260503181605 | 60 | 292 | 13.0 | 20.0 | 0.00 | 0.00 | 0.00 | 82 | 1008.6 |
| 20260503181102 | 60 | 300 | 17.4 | 20.0 | 0.00 | 0.00 | 0.00 | 80 | 1008.6 |
| 20260503180559 | 60 | 330 | 17.4 | 21.7 | 0.00 | 0.00 | 0.00 | 80 | 1008.5 |
| 20260503180056 | 60 | 281 | 10.4 | 17.4 | 0.00 | 0.00 | 0.00 | 80 | 1008.5 |
| 20260503175553 | 60 | 275 | 14.8 | 18.2 | 0.00 | 0.00 | 0.00 | 81 | 1008.4 |
| 20260503175050 | 60 | 301 | 12.2 | 18.2 | 0.00 | 0.00 | 0.00 | 80 | 1008.5 |
| 20260503174548 | 60 | 290 | 13.0 | 19.1 | 0.00 | 0.00 | 0.00 | 81 | 1008.5 |
| 20260503174044 | 60 | 282 | 12.2 | 21.7 | 0.00 | 0.00 | 0.00 | 81 | 1008.6 |
| 20260503173539 | 60 | 266 | 16.5 | 21.7 | 0.00 | 0.00 | 0.00 | 80 | 1008.7 |
| 20260503173035 | 60 | 274 | 16.5 | 27.8 | 0.00 | 0.00 | 0.00 | 81 | 1008.7 |
| 20260503172533 | 60 | 259 | 13.9 | 20.0 | 0.00 | 0.00 | 0.00 | 81 | 1008.7 |
| 20260503172030 | 60 | 269 | 13.0 | 21.7 | 0.00 | 0.00 | 0.00 | 81 | 1008.7 |
| 20260503171526 | 60 | 287 | 13.0 | 19.1 | 0.00 | 0.00 | 0.00 | 81 | 1008.8 |
| 20260503171024 | 60 | 303 | 14.8 | 20.0 | 0.00 | 0.00 | 0.00 | 81 | 1008.7 |
| 20260503170520 | 60 | 293 | 19.1 | 22.6 | 0.00 | 0.00 | 0.00 | 81 | 1008.8 |
| 20260503150913 | 59 | 332 | 17.4 | 20.9 | 0.00 | 0.00 | 0.00 | 83 | 1008.8 |
| 20260503150409 | 59 | 267 | 13.0 | 21.7 | 0.00 | 0.00 | 0.00 | 84 | 1008.9 |
| 20260503131302 | 60 | 285 | 14.8 | 22.6 | 0.00 | 0.02 | 0.02 | 77 | 1009.6 |
| 20260503130800 | 60 | 305 | 17.4 | 20.9 | 0.00 | 0.02 | 0.02 | 77 | 1009.7 |
| 20260503130257 | 60 | 322 | 15.6 | 22.6 | 0.00 | 0.02 | 0.02 | 77 | 1009.7 |
| 20260503110651 | 61 | 267 | 20.9 | 25.2 | 0.00 | 0.02 | 0.02 | 76 | 1009.3 |
| 20260503110148 | 61 | 332 | 18.2 | 22.6 | 0.00 | 0.02 | 0.02 | 76 | 1009.2 |
| 20260503100115 | 61 | 308 | 20.0 | 26.9 | 0.00 | 0.02 | 0.02 | 75 | 1008.9 |
| 20260503081504 | 59 | 291 | 14.8 | 22.6 | 0.00 | 0.02 | 0.02 | 88 | 1008.5 |
| 20260503081001 | 58 | 301 | 16.5 | 19.1 | 0.00 | 0.02 | 0.02 | 87 | 1008.4 |
| 20260503080457 | 59 | 294 | 16.5 | 22.6 | 0.00 | 0.02 | 0.02 | 85 | 1008.4 |
| 20260503072934 | 62 | 300 | 16.5 | 23.5 | 0.00 | 0.02 | 0.02 | 76 | 1007.8 |
| 20260503072431 | 62 | 293 | 16.5 | 22.6 | 0.00 | 0.02 | 0.02 | 77 | 1007.9 |
| 20260503071928 | 63 | 319 | 12.2 | 20.9 | 0.00 | 0.02 | 0.02 | 76 | 1008.0 |
| 20260503071425 | 62 | 322 | 16.5 | 25.2 | 0.00 | 0.02 | 0.02 | 75 | 1008.1 |
| 20260503070921 | 62 | 319 | 16.5 | 26.1 | 0.00 | 0.02 | 0.02 | 75 | 1007.8 |
| 20260503070418 | 62 | 289 | 16.5 | 25.2 | 0.00 | 0.02 | 0.02 | 75 | 1007.7 |
| 20260503054832 | 59 | 309 | 17.4 | 22.6 | 0.00 | 0.02 | 0.02 | 85 | 1008.0 |
| 20260503054328 | 59 | 296 | 20.9 | 26.1 | 0.00 | 0.02 | 0.02 | 85 | 1007.9 |
| 20260503053826 | 58 | 307 | 22.6 | 30.4 | 0.00 | 0.02 | 0.02 | 85 | 1008.0 |
| 20260503053324 | 57 | 337 | 19.1 | 25.2 | 0.00 | 0.02 | 0.02 | 87 | 1008.1 |
| 20260503052820 | 58 | 300 | 20.0 | 26.1 | 0.00 | 0.02 | 0.02 | 87 | 1008.2 |
| 20260503052317 | 59 | 333 | 12.2 | 19.1 | 0.00 | 0.02 | 0.02 | 86 | 1007.8 |
| 20260503051813 | 58 | 298 | 14.8 | 21.7 | 0.00 | 0.02 | 0.02 | 87 | 1007.9 |
| 20260503051309 | 57 | 318 | 11.3 | 14.8 | 0.00 | 0.02 | 0.02 | 88 | 1007.9 |
| 20260503050806 | 58 | 303 | 13.0 | 19.1 | 0.05 | 0.02 | 0.02 | 88 | 1008.0 |
| 20260503050303 | 58 | 313 | 15.6 | 20.0 | 0.05 | 0.02 | 0.02 | 87 | 1008.1 |
| 20260503045800 | 58 | 281 | 12.2 | 20.0 | 0.00 | 0.01 | 0.01 | 87 | 1007.9 |
| 20260503045258 | 58 | 297 | 11.3 | 18.2 | 0.00 | 0.01 | 0.01 | 85 | 1008.0 |
| 20260503044754 | 58 | 286 | 20.9 | 25.2 | 0.07 | 0.01 | 0.01 | 82 | 1008.1 |
| 20260503044251 | 59 | 320 | 19.1 | 30.4 | 0.07 | 0.01 | 0.01 | 83 | 1007.8 |
| 20260503043748 | 59 | 300 | 18.2 | 28.7 | 0.00 | 0.00 | 0.00 | 81 | 1007.8 |
| 20260503043245 | 60 | 296 | 13.9 | 20.9 | 0.00 | 0.00 | 0.00 | 80 | 1007.8 |
| 20260503042741 | 60 | 318 | 15.6 | 21.7 | 0.00 | 0.00 | 0.00 | 76 | 1007.8 |
| 20260503042238 | 60 | 316 | 16.5 | 26.1 | 0.00 | 0.00 | 0.00 | 74 | 1007.9 |
| 20260503041734 | 63 | 318 | 17.4 | 22.6 | 0.00 | 0.00 | 0.00 | 72 | 1007.5 |
| 20260503041232 | 62 | 315 | 21.7 | 26.9 | 0.00 | 0.00 | 0.00 | 69 | 1007.5 |
| 20260503040729 | 62 | 320 | 23.5 | 28.7 | 0.00 | 0.00 | 0.00 | 69 | 1007.7 |
| 20260503040227 | 62 | 326 | 11.3 | 23.5 | 0.00 | 0.00 | 0.00 | 73 | 1007.7 |
| 20260503035723 | 62 | 318 | 16.5 | 23.5 | 0.00 | 0.00 | 0.00 | 71 | 1007.7 |
| 20260503035221 | 62 | 320 | 20.9 | 25.2 | 0.00 | 0.00 | 0.00 | 71 | 1007.8 |
| 20260503034718 | 63 | 309 | 20.0 | 23.5 | 0.00 | 0.00 | 0.00 | 72 | 1007.7 |
| 20260503034215 | 62 | 310 | 23.5 | 26.9 | 0.00 | 0.00 | 0.00 | 72 | 1007.8 |
| 20260503033713 | 62 | 322 | 20.9 | 25.2 | 0.00 | 0.00 | 0.00 | 70 | 1007.9 |
| 20260503033210 | 62 | 310 | 20.9 | 29.5 | 0.00 | 0.00 | 0.00 | 72 | 1007.9 |
| 20260503032708 | 62 | 310 | 19.1 | 27.8 | 0.00 | 0.00 | 0.00 | 74 | 1007.8 |
| 20260503032206 | 61 | 314 | 16.5 | 26.1 | 0.00 | 0.00 | 0.00 | 78 | 1007.8 |
| 20260503031703 | 60 | 312 | 23.5 | 25.2 | 0.00 | 0.00 | 0.00 | 81 | 1007.9 |
| 20260503031201 | 60 | 323 | 21.7 | 26.1 | 0.00 | 0.00 | 0.00 | 84 | 1007.7 |
| 20260503030656 | 59 | 314 | 14.8 | 19.1 | 0.00 | 0.00 | 0.00 | 85 | 1008.1 |
| 20260503030154 | 58 | 296 | 11.3 | 20.0 | 0.00 | 0.00 | 0.00 | 85 | 1008.2 |
| 20260503025650 | 58 | 299 | 16.5 | 21.7 | 0.00 | 0.00 | 0.00 | 82 | 1008.5 |
| 20260503025148 | 59 | 307 | 13.9 | 21.7 | 0.00 | 0.00 | 0.00 | 79 | 1008.5 |
| 20260503024644 | 60 | 308 | 20.9 | 33.9 | 0.00 | 0.00 | 0.00 | 77 | 1008.7 |
| 20260503024142 | 61 | 331 | 24.3 | 35.6 | 0.00 | 0.00 | 0.00 | 75 | 1008.6 |
| 20260503023638 | 61 | 301 | 18.2 | 29.5 | 0.00 | 0.00 | 0.00 | 72 | 1008.5 |
| 20260503023136 | 61 | 309 | 13.9 | 22.6 | 0.00 | 0.00 | 0.00 | 72 | 1008.5 |
| 20260503022632 | 61 | 300 | 14.8 | 27.8 | 0.00 | 0.00 | 0.00 | 73 | 1008.5 |
| 20260503022126 | 61 | 316 | 20.0 | 25.2 | 0.00 | 0.00 | 0.00 | 73 | 1008.4 |
| 20260503021623 | 61 | 328 | 14.8 | 25.2 | 0.00 | 0.00 | 0.00 | 75 | 1008.4 |
| 20260503021120 | 60 | 341 | 18.2 | 26.1 | 0.00 | 0.00 | 0.00 | 75 | 1008.4 |
| 20260503020617 | 61 | 275 | 20.9 | 26.1 | 0.00 | 0.00 | 0.00 | 74 | 1008.4 |
| 20260503020115 | 62 | 313 | 23.5 | 26.9 | 0.00 | 0.00 | 0.00 | 73 | 1008.3 |
| 20260503015611 | 62 | 297 | 24.3 | 29.5 | 0.00 | 0.00 | 0.00 | 70 | 1008.4 |
| 20260503015108 | 62 | 291 | 20.9 | 26.1 | 0.00 | 0.00 | 0.00 | 73 | 1008.4 |
| 20260503014604 | 61 | 299 | 19.1 | 23.5 | 0.00 | 0.00 | 0.00 | 74 | 1008.4 |
| 20260503014102 | 62 | 330 | 22.6 | 28.7 | 0.00 | 0.00 | 0.00 | 74 | 1008.3 |
| 20260503013559 | 61 | 301 | 20.0 | 32.2 | 0.00 | 0.00 | 0.00 | 73 | 1008.6 |
| 20260503013057 | 62 | 303 | 16.5 | 26.9 | 0.00 | 0.00 | 0.00 | 71 | 1008.5 |
| 20260503012554 | 62 | 13 | 20.0 | 26.1 | 0.00 | 0.00 | 0.00 | 72 | 1008.6 |
| 20260503012050 | 62 | 317 | 21.7 | 29.5 | 0.00 | 0.00 | 0.00 | 71 | 1008.5 |
| 20260503011547 | 62 | 345 | 20.0 | 29.5 | 0.00 | 0.00 | 0.00 | 71 | 1008.2 |
| 20260503011044 | 61 | 330 | 20.9 | 26.9 | 0.00 | 0.00 | 0.00 | 73 | 1008.4 |
| 20260503010540 | 61 | 297 | 20.9 | 27.8 | 0.00 | 0.00 | 0.00 | 75 | 1008.2 |
| 20260503010038 | 61 | 335 | 25.2 | 28.7 | 0.00 | 0.00 | 0.00 | 74 | 1008.2 |
| 20260503005535 | 61 | 359 | 14.8 | 26.1 | 0.00 | 0.00 | 0.00 | 75 | 1008.6 |
| 20260503005032 | 61 | 328 | 20.9 | 27.8 | 0.00 | 0.00 | 0.00 | 76 | 1008.2 |
| 20260503004528 | 61 | 334 | 19.1 | 25.2 | 0.00 | 0.00 | 0.00 | 77 | 1008.3 |
| 20260503004026 | 61 | 337 | 20.9 | 27.8 | 0.00 | 0.00 | 0.00 | 76 | 1008.4 |
| 20260503003523 | 61 | 326 | 23.5 | 28.7 | 0.00 | 0.00 | 0.00 | 76 | 1008.5 |
| 20260503003020 | 60 | 330 | 20.0 | 27.8 | 0.00 | 0.00 | 0.00 | 75 | 1008.3 |
| 20260503002517 | 60 | 331 | 22.6 | 29.5 | 0.00 | 0.00 | 0.00 | 75 | 1008.4 |
| 20260503002014 | 61 | 323 | 25.2 | 27.8 | 0.00 | 0.00 | 0.00 | 75 | 1008.6 |
| 20260503001510 | 60 | 328 | 18.2 | 27.8 | 0.00 | 0.00 | 0.00 | 75 | 1008.5 |
| 20260503001008 | 60 | 332 | 25.2 | 30.4 | 0.00 | 0.00 | 0.00 | 75 | 1008.6 |
| 20260503000505 | 60 | 325 | 26.1 | 32.2 | 0.00 | 0.00 | 0.00 | 73 | 1008.5 |
| 20260503000002 | 60 | 317 | 23.5 | 29.5 | 0.00 | 0.00 | 0.00 | 73 | 1008.5 |
| 20260502235458 | 60 | 312 | 20.9 | 28.7 | 0.00 | 0.00 | 0.00 | 73 | 1008.6 |
| 20260502234955 | 60 | 337 | 23.5 | 27.8 | 0.00 | 0.00 | 0.00 | 74 | 1008.4 |
| 20260502234452 | 60 | 345 | 19.1 | 26.9 | 0.00 | 0.00 | 0.00 | 75 | 1008.5 |
| 20260502233949 | 60 | 322 | 26.1 | 29.5 | 0.00 | 0.00 | 0.00 | 75 | 1008.5 |
| 20260502233444 | 60 | 341 | 28.7 | 30.4 | 0.00 | 0.00 | 0.00 | 74 | 1008.5 |
| 20260502232941 | 61 | 327 | 22.6 | 27.8 | 0.00 | 0.00 | 0.00 | 72 | 1008.6 |
| 20260502232438 | 61 | 349 | 16.5 | 27.8 | 0.00 | 0.00 | 0.00 | 71 | 1008.5 |